Terminal Aerodrome Forecast
Issued by NWS

Home | Current Version | Previous Version | Text Only | Print | Product List | Glossary On
Versions: 1 2 3 4 5 6 7 8 9 10 11 12 13 14 15 16 17
000
FTUS45 KRIW 230526
TAFBPI
TAF
KBPI 230526Z 2306/2406 04008KT 3SM -SN OVC022
      TEMPO 2308/2312 1SM -SN OVC010
     FM231800 33014G24KT P6SM VCSH SCT024 BKN040
     FM240100 34011KT P6SM SCT040 BKN080
     FM240500 35008KT P6SM SCT080=

USA.gov is the U.S. government's official web portal to all federal, state and local government web resources and services.